Regional Weather Roundup
Issued by NWS Kansas City/Pleasant Hill, MO

Home | Current Version | Previous Version | Text Only | Print | Product List | Glossary On
Versions: 1 2 3 4 5 6 7 8 9 10 11 12 13 14 15 16 17 18 19 20 21 22 23 24 25 26 27 28 29 30 31 32 33 34 35 36 37 38 39 40 41 42 43 44 45 46 47 48 49 50
000
ASUS43 KEAX 222210
RWREAX

WEATHER ROUNDUP FOR EASTERN KANSAS AND NORTHWEST MISSOURI
NATIONAL WEATHER SERVICE KANSAS CITY/PLEASANT HILL MO
500 PM CDT MON SEP 22 2014

KSZ040-057-103>105-MOZ028-029-037-043-222300-
...KANSAS CITY METROPOLITAN AREA...

CITY           SKY/WX    TMP DP  RH WIND       PRES   REMARKS
K.C. INTL      MOSUNNY   72  49  44 SE6       30.23F
K.C. DOWNTOWN  SUNNY     75  51  43 VRB5      30.22F
LEES SUMMIT    SUNNY     74  52  46 VRB3      30.24F
OLATHE - IXD   SUNNY     72  51  47 E5        30.24F
OLATHE - OJC   SUNNY     72  51  47 S5        30.23F
LAWRENCE       SUNNY     74  49  41 SE6       30.23F

$$

MOZ001>008-011>017-020>025-030>033-038>040-044>046-053-054-222300-
...NORTHERN AND CENTRAL MISSOURI...

CITY           SKY/WX    TMP DP  RH WIND       PRES   REMARKS
ST. JOSEPH     SUNNY     75  50  41 S3        30.22F
MOSBY          CLEAR     72  50  46 SE3       30.23F
WHITEMAN AFB   NOT AVBL
CLINTON        SUNNY     73  54  49 CALM      30.24F
SEDALIA        SUNNY     75  49  39 CALM      30.24F
WARSAW         NOT AVBL
MARSHALL       SUNNY     75  50  41 CALM      30.24F
CHILLICOTHE      N/A     74  50  42 VRB3      30.24F
MOBERLY        SUNNY     75  43  31 CALM      30.25F
KIRKSVILLE     SUNNY     71  49  45 W3        30.25F

$$

MOZ041-047>049-056>058-063>065-088>090-097-222300-
...EASTERN AND SOUTHERN MISSOURI...

CITY           SKY/WX    TMP DP  RH WIND       PRES   REMARKS
ST. LOUIS INTL MOSUNNY   75  47  36 CALM      30.23F
SPIRIT OF STL  SUNNY     73  46  38 NW5       30.23F
COLUMBIA       SUNNY     72  49  44 NE5       30.24F
JEFFERSON CITY SUNNY     74  44  34 SE7       30.22F
MEXICO         SUNNY     77  48  36 CALM      30.24F
HANNIBAL       SUNNY     73  39  29 CALM      30.25S
ROLLA          SUNNY     72  46  39 NE7       30.22F
LEBANON        SUNNY     73  45  35 NE3       30.24S
OSAGE BEACH    SUNNY     73  48  40 NE6       30.23F
SPRINGFIELD    SUNNY     74  48  39 NE7       30.23F
BRANSON        MOSUNNY   77  50  38 NE7       30.23F
NEVADA         SUNNY     73  54  49 CALM      30.24F
JOPLIN         SUNNY     74  51  44 CALM      30.23F
WEST PLAINS    SUNNY     75  48  38 VRB5      30.23F

$$

IAZ060-094-KSZ022-034>040-054-083-096-NEZ052-066-093-222300-
...KANSAS...SOUTHEAST NEBRASKA AND IOWA...

CITY           SKY/WX    TMP DP  RH WIND       PRES   REMARKS
TOPEKA         SUNNY     76  49  38 E6        30.22F
MANHATTAN      MOSUNNY   74  48  39 SW8       30.21F
EMPORIA        MOSUNNY   73  50  44 E7        30.22F
CHANUTE        MOSUNNY   73  52  47 E3        30.23F
WICHITA        MOSUNNY   79  43  27 VRB6      30.20F
OMAHA          PTSUNNY   73  48  41 S10       30.21F
LINCOLN        PTSUNNY   75  46  35 S9        30.20F
FALLS CITY     SUNNY     73  47  39 S5        30.21F
LAMONI         SUNNY     71  51  49 SW7       30.24F
DES MOINES     MOSUNNY   73  49  42 W7        30.22F

$$




USA.gov is the U.S. government's official web portal to all federal, state and local government web resources and services.